#timestamp,LO_Frequency,Hit,StdDev 
1551024015.4,286047004.2,N
1551024035.3,286047003.8,N
1551024055.1,286047001.3,N
1551024075.9,286047002.8,N
1551024095.7,286047002.1,N
1551024115.5,286047002.0,N
1551024135.4,286047002.9,N
1551024155.2,286047004.5,N
1551024175.0,286047005.5,Y
1551024176.0,286047005.5,P
1551024195.8,286047000.9,N
1551024215.6,286046997.0,N
1551024235.5,286046997.8,N
1551024255.3,286046995.4,N
1551024275.1,286046997.2,N
1551024295.9,286046996.6,N
1551024315.7,286046998.8,N
1551024335.6,286046998.4,N
1551024355.4,286046999.2,N
1551024375.2,286046996.9,N
1551024395.1,286046996.7,N
1551024396.0,286046996.7,N
1551024415.8,286046997.4,N
1551024435.6,286046997.3,N
1551024455.5,286046997.8,N
1551024475.3,286046996.6,N
1551024495.2,286046998.9,N
1551024515.9,286046998.1,N
1551024535.7,286046996.9,N
1551024555.6,286046999.5,N
1551024575.4,286046998.5,N
1551024595.3,286047000.9,N
1551024615.1,286047000.9,N
1551024635.8,286047000.7,N
1551024655.7,286047000.8,N
1551024675.5,286046998.6,N
1551024695.4,286046999.3,N
1551024715.2,286046999.0,N
1551024735.0,286047001.0,N
1551024735.9,286047001.0,N
1551024755.8,286047000.9,N
1551024775.6,286047002.4,N
1551024795.4,286046998.5,N
1551024815.3,286046999.0,N
1551024835.1,286046996.5,N
1551024855.9,286046997.1,N
1551024875.7,286046997.2,N
1551024895.5,286046997.0,N
1551024915.4,286046996.6,N
1551024935.2,286046998.9,N
1551024955.1,286046999.0,N
1551024956.0,286046999.0,N
1551024975.8,286046996.8,N
1551024995.6,286046997.5,N
1551025015.5,286046997.7,N
1551025035.3,286046997.5,N
1551025055.1,286046996.8,N
1551025075.9,286046997.4,N
1551025095.7,286046997.4,N
1551025115.6,286046996.8,N
1551025135.4,286046996.8,N
1551025155.2,286047000.8,N
1551025175.1,286047000.9,N
1551025176.0,286047000.9,N
1551025195.8,286046999.6,N
1551025215.7,286046996.7,N
1551025235.5,286046997.2,N
1551025255.3,286046999.5,N
1551025275.2,286046999.6,N
1551025295.9,286047001.2,N
1551025315.7,286047001.1,N
1551025335.6,286046999.0,N
1551025355.4,286047001.1,N
1551025375.2,286047002.6,N
1551025395.1,286047000.9,N
1551025396.0,286047000.9,N
1551025415.8,286047000.0,N
1551025435.7,286047000.3,N
1551025455.5,286047000.2,N
1551025475.3,286047000.4,N
1551025495.2,286046999.7,N
1551025515.0,286047000.3,N
1551025515.9,286047000.3,N
1551025535.8,286047000.6,N
1551025555.6,286046998.8,N
1551025575.4,286046998.3,N
1551025595.3,286046999.0,N
1551025615.1,286046998.3,N
1551025635.9,286047001.0,N
1551025655.7,286046999.7,N
1551025675.5,286047000.2,N
1551025695.4,286047002.1,N
1551025715.2,286047000.9,N
1551025735.0,286046999.8,N
1551025735.9,286046999.8,N
1551025755.0,286046999.8,N
1551025755.9,286046999.8,N
1551025775.8,286047000.1,N
1551025795.6,286047000.4,N
1551025815.5,286047000.9,N
1551025835.3,286046998.1,N
1551025855.1,286046999.8,N
1551025875.9,286047002.6,N
1551025895.7,286047000.5,N
1551025915.5,286046998.7,N
1551025935.4,286046996.6,Y
1551025955.2,286046996.8,P
1551025975.1,286046997.1,N
1551025976.0,286046997.1,N
1551025995.8,286046997.3,N
1551026015.6,286046997.2,N
1551026035.5,286046997.2,N
1551026055.3,286046996.9,Y
1551026075.1,286047000.8,P
1551026095.9,286047002.5,N
1551026115.0,286047000.5,N
1551026115.9,286047000.5,N
1551026135.8,286047000.1,N
1551026155.6,286047001.9,N
1551026175.4,286047000.1,N
1551026195.3,286047002.6,N
1551026215.1,286047001.8,N
1551026235.9,286047001.5,N
1551026255.7,286047004.3,Y
1551026275.5,286047003.7,P
1551026295.4,286047003.4,N
1551026315.2,286047005.4,P
1551026335.1,286047005.7,Y
1551026336.0,286047005.7,P
1551026355.8,286047000.2,N
1551026375.6,286047000.0,N
1551026395.5,286047000.4,N
1551026415.3,286047000.6,N
1551026435.1,286046998.2,N
1551026455.9,286046998.9,N
1551026475.7,286046998.5,N
1551026495.6,286047001.0,N
1551026515.4,286047000.9,N
1551026535.2,286047000.5,N
1551026555.1,286047000.2,N
1551026556.0,286047000.2,N
1551026575.8,286047001.2,N
1551026595.7,286046998.7,N
1551026615.5,286047000.4,N
1551026635.3,286047000.6,N
1551026655.2,286046999.3,N
1551026675.0,286047001.2,N
1551026675.9,286047001.2,N
1551026695.7,286046998.8,N
1551026715.6,286046998.5,N
1551026735.4,286046998.6,N
1551026755.3,286046999.8,N
1551026775.1,286046998.6,N
1551026795.8,286046999.1,N
1551026815.7,286046998.7,N
1551026835.5,286046999.5,N
1551026855.4,286046998.4,N
1551026875.2,286046998.1,N
1551026895.0,286047000.1,N
1551026895.9,286047000.1,N
1551026915.8,286047000.7,N
1551026935.6,286046998.1,N
1551026955.5,286047001.0,N
1551026975.3,286047000.5,N
1551026995.1,286047001.2,N
1551027015.9,286046998.1,N
1551027035.7,286047001.2,N
1551027055.6,286046998.5,N
1551027075.4,286047001.1,N
1551027095.2,286047000.2,N
1551027115.1,286047000.9,N
1551027116.0,286047000.9,N
1551027135.8,286047001.2,N
1551027155.6,286047001.1,N
1551027175.5,286046999.0,N
1551027195.3,286046998.6,N
1551027215.2,286046998.3,N
1551027235.9,286046999.3,N
1551027255.7,286046999.0,N
1551027275.6,286047000.9,N
1551027295.4,286047000.0,N
1551027315.3,286047000.6,N
1551027335.1,286046998.6,N
1551027336.0,286046998.6,N
1551027355.8,286047000.8,N
1551027375.7,286047000.5,N
1551027395.5,286047000.3,N
1551027415.3,286047000.7,N
1551027435.2,286046998.2,N
1551027455.0,286046998.6,N
1551027455.9,286046998.6,N
1551027475.8,286047002.2,N
1551027495.6,286047002.7,N
1551027515.4,286047002.4,N
1551027535.3,286046998.7,N
1551027555.1,286046996.5,N
1551027575.9,286046996.5,N
1551027595.7,286046997.5,N
